Regional Weather Roundup
Issued by NWS

Home | Current Version | Previous Version | Graphics & Text | Print | Product List | Glossary On
Versions: 1 2 3 4 5 6 7 8 9 10 11 12 13 14 15 16 17 18 19 20 21 22 23 24 25 26 27 28 29 30 31 32 33 34 35 36 37 38 39 40 41 42 43 44 45 46 47 48 49 50
000
ASUS43 KDTX 270110
RWRMI
MICHIGAN HOURLY REGIONAL WEATHER ROUNDUP
NATIONAL WEATHER SERVICE DETROIT/PONTIAC MI
900 PM EDT SUN APR 26 2015

NOTE: "FAIR" INDICATES FEW OR NO CLOUDS BELOW 12,000 FEET WITH NO
SIGNIFICANT WEATHER AND/OR OBSTRUCTION TO VISIBILITY.

MIZ047>049-052>055-059>063-066>070-074>076-081>083-270200-
SOUTHEAST LOWER MICHIGAN

CITY           SKY/WX    TMP DP  RH WIND       PRES   REMARKS
ADRIAN         PTCLDY    51  28  41 NE3       29.90S
ALMA           MOCLDY    52  29  41 N8        29.93R
ANN ARBOR      CLOUDY    50  29  44 NE8       29.89S
BAD AXE        CLOUDY    45  31  58 N9        29.93S
CARO           CLEAR     44  32  63 CALM      29.93S
DETROIT CITY   CLEAR     45  30  55 E10       29.91R
DETROIT        PTCLDY    49  33  54 E3        29.91R
FLINT          CLEAR     51  29  42 N8        29.92R
GROSSE ILE     CLEAR     46  34  61 NE7       29.89S
HILLSDALE      PTCLDY    51  29  42 CALM      29.89S
HOWELL         PTCLDY    50  29  44 CALM      29.90R

CITY           SKY/WX    TMP DP  RH WIND       PRES   REMARKS
JACKSON        CLOUDY    52  28  39 NE6       29.89S
LAMBERTVILLE   PTCLDY    50  32  50 E5        29.90S
LANSING        CLOUDY    52  29  41 NE5       29.91S
LAPEER         FAIR      45  31  58 NE8       29.92R
MASON          CLOUDY    51  29  43 NE3       29.90S
MONROE         PTCLDY    48  34  57 CALM      29.89R
PONTIAC        PTCLDY    48  28  46 N7        29.89S
PORT HOPE        N/A     43  35  73 N8        29.92R
PORT HURON     CLEAR     39  32  75 N6        29.92F WCI  35
TRI CITIES     PTCLDY    46  34  62 NE7       29.95R
MIDLAND        FAIR      43  34  69 E8        29.94S
TROY           CLEAR     50  32  50 NE8       29.92R
SAGINAW HB     PTCLDY    45  32  61 NE9       29.94R
$$
MIZ043>046-050>051-056>058-064>065-071>073-077>080-270200-
SOUTHWEST LOWER MICHIGAN

CITY           SKY/WX    TMP DP  RH WIND       PRES   REMARKS
BATTLE CREEK   CLOUDY    53  31  42 W9        29.91R
BENTON HARBOR  CLEAR     42  29  59 VRB5      29.97S
BIG RAPIDS     CLEAR     47  29  50 N12       29.96R
COLDWATER      CLOUDY    53  29  40 NW6       29.90R
FREMONT        FAIR      47  26  44 N10       29.97R
HOLLAND        PTCLDY    50  27  40 NW7       29.95S
GRAND RAPIDS   PTCLDY    51  26  37 N10       29.93R
IONIA          FAIR      52  25  36 N10G18    29.91R
KALAMAZOO      PTCLDY    51  28  41 NW12      29.93R
LUDINGTON      CLEAR     44  32  62 N9        30.02R
MARSHALL       CLOUDY    52  29  40 NW3       29.89S
MOUNT PLEASANT PTCLDY    49  30  47 NW7       29.94R
MUSKEGON       PTCLDY    50  27  40 N14       29.97R
SOUTH HAVEN    CLEAR     45  30  55 N8G17     29.96R
$$
MIZ016>042-270200-
NORTHERN LOWER MICHIGAN

CITY           SKY/WX    TMP DP  RH WIND       PRES   REMARKS
BEAVER ISLAND  CLOUDY    42  32  67 NW7       30.04S
BELLAIRE       MOCLDY    44  31  59 N8G17     30.02R
CADILLAC       CLEAR     42  30  62 N12G18    29.98R
CHARLEVOIX     CLOUDY    39  32  76 NW3       30.06S
FRANKFORT      CLEAR     45  29  53 N7        30.03S
GAYLORD        CLOUDY    44  31  60 NW8       29.98R
GRAYLING       CLOUDY    45  32  58 NW10      29.98R
HARBOR SPRINGS CLOUDY    44  30  58 NW3       30.01S
HOUGHTON LAKE  CLEAR     45  29  53 N10       29.96R
MANISTEE       CLEAR     46  28  49 N10G21    30.03R
OSCODA         MOCLDY    48  32  54 N8        29.93S
PELLSTON       CLOUDY    45  31  58 NW10      30.01S
ROGERS CITY    CLOUDY    44  32  62 NW10G20   29.98S
TRAVERSE CITY  PTCLDY    44  31  60 N10G18    30.01S
$$
MIZ007>008-015-270200-
EASTERN UPPER MICHIGAN

CITY           SKY/WX    TMP DP  RH WIND       PRES   REMARKS
KINROSS        CLOUDY    39  34  81 NW14      30.00S WCI  31
MACKINAC ISLAN CLOUDY    44  32  62 N13       30.00S
NEWBERRY       CLOUDY    39  31  72 N10G17    30.04R WCI  33
S. S. MARIE    CLOUDY    38  31  76 NW9       30.00S WCI  31
MUNISING         N/A     38  30  73 N9        30.08F WCI  31
$$
MIZ004>006-011>014-085-270200-
CENTRAL UPPER MICHIGAN

CITY           SKY/WX    TMP DP  RH WIND       PRES   REMARKS
MANISTIQUE     CLOUDY    42  31  65 N13       30.05S
ESCANABA       CLOUDY    45  27  49 N8        30.08R
MENOMINEE      CLEAR     46  28  49 NE14G20   30.06R
SAWYER-GWINN   CLEAR     43  27  52 N6        30.09S
$$
MIZ001>003-009>011-084-270200-
WESTERN UPPER MICHIGAN

CITY           SKY/WX    TMP DP  RH WIND       PRES   REMARKS
IRON MOUNTAIN  CLEAR     48  26  42 N10       30.07R
HOUGHTON       CLEAR     44  27  51 NW10      30.12S
COPPER HARBOR    N/A     43  30  60 N14       30.12R
IRONWOOD       CLEAR     45  27  49 N5        30.12S
$$

ABBREVIATIONS USED IN REMARKS
   TC - TEMPERATURE IN CELSIUS
  WCI - WIND CHILL INDEX
   HX - HEAT INDEX
  VSB - VISIBILITY



USA.gov is the U.S. government's official web portal to all federal, state and local government web resources and services.